Location: Dürabuch
(48.2640°N, 11.2185°E)
Time: 08:51:44
(UTC+00:00)

Nadezhda 1 Rocket - Pass Details

Date: 23 May 2024
Orbit: 941 x 1004 km, 83.0° (Epoch: 15 June)

Event Time Altitude Azimuth Distance (km) Brightness Sun altitude
Rises 01:05:08 0° 348° (NNW) 3,743 7.9 -16.6°
Reaches altitude 10° 01:07:42 10° 345° (NNW) 2,790 7.1 -16.4°
Maximum altitude 01:14:00 61° 267° (W) 1,127 4.2 -15.9°
Enters shadow 01:18:18 21° 193° (SSW) 2,075 5.1 -15.5°
